Flag for Spain Weather past 2 weeks in Santa Cruz de Tenerife, Canary Islands, Spain

Now
66 °F

Broken clouds.


Feels Like: 66 °F
Forecast: 72 / 79 °F
Wind: 18 mph from Northwest

Location: Tenerife / Los Rodeos

Current Time: Jul 5, 2015 at 10:31:08 AM

Latest Report: Jul 5, 2015 at 10:00 AM


Visibility: N/A

Pressure: 30.12 "Hg

Humidity: 83%

Dew point: 61 °F

Location of Santa Cruz de TenerifeLocation

Historic Weather in Santa Cruz de Tenerife — Graph

°F

Santa Cruz de Tenerife temperature yesterday

Maximum temperature yesterday: 68 °F (at 12:30 PM)
Minimum temperature yesterday: 57 °F (at 6:00 AM)
Average temperature yesterday: 64 °F

Past Weeks' High & Low Weather Summary

 TemperatureHumidityPressure
High84 °F (Jun 29, 1:30 PM)100% (Jun 20, 9:30 PM)30.27 "Hg (Jun 20, 9:30 PM)
Low57 °F (Jun 21, 6:00 AM)37% (Jun 29, 2:00 PM)30.09 "Hg (Jun 30, 6:00 AM)
Average65 °F81%30.18 "Hg
* Reported Jun 20 9:00 AM — Jul 5 9:30 AM, Santa Cruz de Tenerife, Weather by CustomWeather, © 2015

Note: Actual official high and low records may vary slightly from our data, if they occured in-between our weather recording intervals... More about our weather records

Advertising

Santa Cruz de Tenerife weather history for previous 24 hours

 ConditionsComfort  
Time TempWeatherWind HumidityBarometerVisibility
9:30 AM
Sun, Jul 5
64 °FBroken clouds.20 mph88%30.12 "HgN/A
9:00 AM63 °FBroken clouds.21 mph88%30.12 "HgN/A
8:30 AM63 °FFog.22 mph88%30.12 "HgN/A
8:00 AM61 °FPartly cloudy.22 mph94%30.09 "HgN/A
7:30 AM61 °FFog.22 mph94%30.09 "HgN/A
7:00 AM61 °FFog.23 mph94%30.09 "HgN/A
6:30 AM61 °FFog.22 mph94%30.09 "HgN/A
6:00 AM61 °FPartly cloudy.23 mph94%30.09 "HgN/A
11:00 PM
Sat, Jul 4
61 °FPassing clouds.17 mph94%30.18 "HgN/A
10:30 PM61 °FPassing clouds.18 mph94%30.15 "HgN/A
10:00 PM61 °FPassing clouds.16 mph94%30.15 "HgN/A
9:30 PM61 °FPassing clouds.17 mph94%30.15 "HgN/A
9:00 PM61 °FPassing clouds.18 mph94%30.15 "HgN/A
8:30 PM63 °FPassing clouds.18 mph88%30.15 "HgN/A
8:00 PM64 °FPassing clouds.21 mph78%30.15 "HgN/A
7:30 PM64 °FPassing clouds.20 mph83%30.15 "HgN/A
7:00 PM66 °FPassing clouds.21 mph78%30.15 "HgN/A
6:30 PM66 °FPassing clouds.20 mph78%30.18 "HgN/A
6:00 PM66 °FPassing clouds.20 mph78%30.18 "HgN/A
5:30 PM68 °FPassing clouds.20 mph73%30.18 "HgN/A
5:00 PM68 °FPassing clouds.18 mph73%30.18 "HgN/A
4:30 PM68 °FPassing clouds.21 mph69%30.18 "HgN/A
4:00 PM68 °FPassing clouds.21 mph69%30.18 "HgN/A
3:30 PM68 °FPassing clouds.22 mph69%30.21 "HgN/A
3:00 PM68 °FPassing clouds.23 mph69%30.21 "HgN/A
2:30 PM68 °FPassing clouds.22 mph69%30.21 "HgN/A
2:00 PM68 °FPassing clouds.23 mph69%30.21 "HgN/A
1:30 PM68 °FPassing clouds.23 mph69%30.21 "HgN/A
1:00 PM66 °FPassing clouds.22 mph73%30.21 "HgN/A
12:30 PM68 °FPassing clouds.23 mph69%30.21 "HgN/A
12:00 PM66 °FPassing clouds.22 mph73%30.21 "HgN/A
11:30 AM66 °FPassing clouds.21 mph73%30.21 "HgN/A
11:00 AM64 °FPassing clouds.22 mph73%30.21 "HgN/A
10:30 AM64 °FPassing clouds.21 mph73%30.21 "HgN/A
10:00 AM63 °FPassing clouds.21 mph77%30.21 "HgN/A
Weather by CustomWeather, © 2015

See weather overviewHow to use our weather pages